User: anonymous   Login
Location: McDonald Observatory
(30.6717°N, 104.0221°W)
Time: 10:17:12
(UTC-05:00)
Language:

Cosmos 1484 Rocket - Orbit

View from above orbital plane
View from above orbital plane
View from above satellite
View from above satellite

Ground track
Ground track

The orbit data is extracted from the following two-line orbital elements,

1 14208U 83075B   17112.91494518 +.00001021 +00000-0 +65052-4 0  9997
2 14208 097.3426 125.7482 0038398 323.9929 035.8715 15.10342405838862
Epoch (UTC): 22 April 2017 21:57:31
Eccentricity: 0.0038398
inclination: 97.3426°
perigee height: 508 km
apogee height: 562 km
right ascension of ascending node: 125.7482°
argument of perigee: 323.9929°
revolutions per day: 15.10342405
mean anomaly at epoch: 35.8715°
orbit number at epoch: 83886

The dashed part of the orbit path shows where the satellite is in the earth's shadow,  

DLR